Regional Weather Roundup
Issued by NWS

Home | Current Version | Previous Version | Graphics & Text | Print | Product List | Glossary On
Versions: 1 2 3 4 5 6 7 8 9 10 11 12 13 14 15 16 17 18 19 20 21 22 23 24 25 26 27 28 29 30 31 32 33 34 35 36 37 38 39 40 41 42 43 44 45 46 47 48 49 50
000
ASUS43 KDMX 191606
RWRIA

WEATHER ROUNDUP FOR IOWA
NATIONAL WEATHER SERVICE DES MOINES IA
1000 AM CST SUN NOV 19 2017

NOTE: "FAIR" INDICATES FEW OR NO CLOUDS BELOW 12,000 FEET WITH NO
SIGNIFICANT WEATHER AND/OR OBSTRUCTIONS TO VISIBILITY.

* - THESE STATIONS ARE NOT NWS STATIONS...THUS NOT UNDER NWS
QUALITY CONTROL.  THEY ALSO DO NOT REPORT WEATHER SUCH
AS PRECIPITATION OR FOG.

IAZ001>003-012>014-020>022-031>034-043>046-191700-
   NORTHWEST IOWA

CITY           SKY/WX    TMP DP  RH WIND       PRES   REMARKS
CARROLL *      MOSUNNY   34  21  60 SW10      30.16S WCI  26
CHEROKEE *     CLOUDY    32  24  73 S8        30.13F WCI  24
DENISON *      CLOUDY    32  25  74 W6        30.18S WCI  26
LE MARS *      CLOUDY    32  25  74 S9        30.11F WCI  24
ORANGE CITY *  CLOUDY    34  27  75 SW8       30.09F WCI  27
SHELDON *      CLOUDY    32  21  64 S9        30.08S WCI  24
SIOUX CITY     SUNNY     32  26  78 SE5       30.14F WCI  27
SPENCER        MOSUNNY   32  23  69 SW10      30.09F WCI  24
STORM LAKE *   MOSUNNY   32  23  69 SW14      30.11F WCI  22
$$

IAZ055>058-069>071-079>083-090>094-191700-
   SOUTHWEST IOWA

CITY           SKY/WX    TMP DP  RH WIND       PRES   REMARKS
ATLANTIC *     SUNNY     34  25  69 S9        30.20S WCI  26
AUDUBON *      SUNNY     34  25  69 SW8       30.18S WCI  27
CLARINDA *     SUNNY     36  28  75 S6        30.24F WCI  31
COUNCIL BLFS * SUNNY     36  28  75 SW8       30.19S WCI  29
CRESTON *      SUNNY     34  23  64 W8        30.21F WCI  27
HARLAN  *      MOSUNNY   34  27  75 S9        30.21F WCI  26
LAMONI         SUNNY     34  22  61 W7        30.22S WCI  28
RED OAK *      SUNNY     36  28  75 S8        30.21F WCI  29
SHENANDOAH *   SUNNY     36  28  75 SW7       30.24S WCI  30
$$

IAZ047>049-059>061-072>074-084-191700-
   CENTRAL IOWA

CITY           SKY/WX    TMP DP  RH WIND       PRES   REMARKS
AMES           SUNNY     32  23  69 W8        30.18S WCI  25
ANKENY *       MOSUNNY   32  21  64 W8        30.21R WCI  25
BOONE *        SUNNY     32  21  64 W8        30.16S WCI  25
CHARITON *     MOSUNNY   32  19  59 W8        30.22R WCI  25
DES MOINES     MOSUNNY   33  21  61 W8        30.20S WCI  26
GRINNELL*      PTSUNNY   29  19  67 W8        30.20S WCI  21
KNOXVILLE *    CLOUDY    30  18  59 W10       30.19S WCI  21
MARSHALLTOWN   CLOUDY    29  19  66 W8        30.16F WCI  21
NEWTON *       MOSUNNY   30  19  64 W7        30.19S WCI  23
PELLA *        MOSUNNY   32  21  63 W5        30.22S WCI  27
PERRY *          N/A     33  24  68 SW7       30.18F WCI  27
$$

IAZ004>006-015-016-023>025-035-036-191700-
   NORTH CENTRAL IOWA

CITY           SKY/WX    TMP DP  RH WIND       PRES   REMARKS
ALGONA *       MOSUNNY   30  23  74 SW9       30.11F WCI  22
CLARION *      MOSUNNY   28  25  86 SW7       30.14S WCI  21
ESTHERVILLE    CLOUDY    29  20  69 SW13      30.07F WCI  19
FORT DODGE *   CLOUDY    30  24  78 SW7       30.15S WCI  23
MASON CITY     MOSUNNY   27  17  66 W8        30.13F WCI  19
FOREST CITY *    N/A     30  21  69 W5        30.11S WCI  25
WEBSTER CITY * MOSUNNY   30  21  69 SW9       30.14S WCI  22
IOWA FALLS *     N/A     29  21  73 W9        30.16F WCI  20
$$

IAZ007>011-017>019-026>030-037>042-050>054-066-191700-
   NORTHEAST IOWA

CITY           SKY/WX    TMP DP  RH WIND       PRES   REMARKS
CEDAR RAPIDS   MOSUNNY   27  14  58 NW15      30.16S WCI  15
CHARLES CITY * SUNNY     25  16  68 W9        30.13S WCI  15
CLINTON *      SUNNY     27  18  69 NW18      30.15R WCI  14
DECORAH *      SUNNY     25  10  54 VRB7      30.09S WCI  17
DUBUQUE        SUNNY     26  12  55 W14       30.12R WCI  14
MONTICELLO *   SUNNY     27  14  59 NW13      30.15R WCI  16
OELWEIN *      SUNNY     25  14  63 W12       30.14S WCI  14
WATERLOO       MOSUNNY   27  14  58 W9        30.15F WCI  18
$$

IAZ064-065-067-068-078-191700-
   EAST CENTRAL IOWA

CITY           SKY/WX    TMP DP  RH WIND       PRES   REMARKS
DAVENPORT      SUNNY     27  14  58 W15       30.18R WCI  15
IOWA CITY      MOSUNNY   30  12  47 NW10      30.21R WCI  21
MT. PLEASANT * SUNNY     29  13  50 NW12G20   30.22R WCI  20
MUSCATINE *    SUNNY     28  14  54 NW14      30.21R WCI  17
QUAD CITIES    SUNNY     29  14  53 NW15G22   30.17R WCI  18
$$

IAZ062-063-075>077-085>089-095>099-191700-
   SOUTHEAST IOWA

CITY           SKY/WX    TMP DP  RH WIND       PRES   REMARKS
BURLINGTON     SUNNY     29  16  58 NW15G22   30.20R WCI  18
FAIRFIELD *    CLOUDY    30  14  51 NW13      30.21S WCI  20
FORT MADISON * SUNNY     30  16  55 NW14G21   30.22R WCI  20
KEOKUK *       SUNNY     32  14  47 NW13      30.22R WCI  22
OSKALOOSA *      N/A     29  17  60 NW8       30.22S WCI  21
OTTUMWA        MOSUNNY   32  16  51 NW10      30.21S WCI  24
WASHINGTON *   MOSUNNY   28  16  59 NW15      30.21S WCI  17
$$

ABBREVIATIONS USED IN REMARKS
   TC - TEMPERATURES IN CELSIUS
  WCI - WIND CHILL INDEX
   HX - HEAT INDEX
  VSB - VISIBILITY
$$





USA.gov is the U.S. government's official web portal to all federal, state and local government web resources and services.